GSAT0216 (GALILEO 20) (43056 NORAD) Tracking and Keplerian Element Data

This shows tracking and keplerian element data for the satellite.

Feedback or suggestion? Click here.




ElementValue
Catalog43056
NameGSAT0216 (GALILEO 20)
Epoch Orbit573
Epoch Day317.52331472
Epoch Year2018
RAAN297.7287
Inclination56.7365
Eccentricity0.0005725
Argument of Perigee259.2246
Mean Anonmoly100.6991
Mean Motion1.70473803
Decay Rate-2.9E-07
L11 43056U 17079B 18317.52331472 -.00000029 00000-0 00000-0 0 9991
L22 43056 56.7365 297.7287 0005725 259.2246 100.6991 1.70473803 5737

Live tracking and technical data element details for GSAT0216 (GALILEO 20) (NORAD 43056). GSAT0216 (GALILEO 20) can be tracked NOW for your location showing map with azimuth and elevation plus other details from your city location.

Track the satellite on the map from your city or location and see movement details for azimuth, elevation, latitude, longitude, range, height, and movement on the map or in text.







IsCatalogInMostPopularTable: catalog: 43056, numindb: 164
Update: records affected: 1



GetName: 43056 GSAT0216 (GALILEO 20)

Hit Count: updated at: Wed, 14 Nov 2018 12:10:34 GMT